RH
89 86 90 88 84 82 83 78 78 86 77 72 72 70 72 84 84 82 80 86 99 98 89 83 86 92 90 81 91 84 80 72 82 92 88 71 92 94 85 93 97 92 100 97 84 98 99 90 80 90 96 94 81 81
89 91 86 82 85 82 79 82 77 74 75 72 71 74 86 79 82 76 86 90 88 96 97 96 96 93 95 98 91 80 84 80 92 95 90 88 88 77 88 100 82 96 100 100 100 99 97 95 96 94 91 93 90 87
90 87 85 83 81 83 79 76 78 76 72 72 71 78 74 76 93 62 85 95 99 83 97 96 90 95 85 98 97 98 87 96 94 96 96 93 94 88 96 100 98 95 95 96 96 96 96 95 83 76 82 90 77 68
89 86 83 84 82 79 79 78 74 75 74 69 74 83 78 87 75 90 83 94 94 86 91 94 82 90 93 94 97 97 91 96 89 83 94 92 92 72 99 93 88 96 94 98 100 96 96 94 90 91 84 71 72 73
86 86 85 82 80 78 78 79 76 73 72 73 82 81 82 87 92 65 56 51 87 98 95 93 80 78 92 88 94 96 96 95 94 93 94 98 94 84 91 83 95 98 100 100 100 99 99 99 97 92 96 96 92 95
87 86 84 82 81 82 78 77 76 74 74 74 84 80 79 95 96 90 96 62 62 96 97 93 76 73 69 86 90 93 95 91 92 94 96 97 96 97 96 98 98 97 96 97 100 97 98 93 90 94 100 98 96 89
87 84 84 83 80 80 79 78 76 74 74 87 86 84 78 78 58 68 75 67 89 94 94 92 91 64 61 91 72 86 78 88 88 94 96 96 95 76 95 99 98 96 96 97 95 96 98 96 100 91 96 91 90 92
83 86 78 79 77 77 79 77 76 76 81 94 86 84 80 77 72 77 62 59 73 69 68 94 81 75 58 83 95 75 91 86 78 95 91 92 76 75 98 99 97 95 89 89 90 95 96 94 89 86 84 89 94 96
84 75 76 75 77 83 79 77 74 89 98 97 70 48 34 41 60 69 50 44 45 59 92 82 93 94 59 66 91 85 78 88 67 85 85 58 73 99 100 98 97 97 98 99 90 87 88 96 94 81 82 79 93 93
74 73 74 76 82 80 74 73 81 90 96 66 44 28 48 35 49 37 38 55 62 56 77 91 63 91 72 68 88 90 92 92 98 91 56 83 100 98 98 97 98 96 96 94 96 90 92 89 89 90 84 80 84 86
74 73 75 79 83 78 65 69 83 73 49 40 35 42 32 39 35 42 80 81 75 89 73 70 68 88 59 96 96 96 97 91 97 89 77 94 100 99 92 92 79 75 71 81 71 76 78 73 82 85 83 75 73 75
73 72 75 79 84 79 60 60 50 30 42 42 35 41 40 56 73 77 87 72 86 97 81 86 77 71 74 76 96 91 96 84 100 66 83 98 100 93 91 90 73 63 65 68 66 70 72 70 74 72 76 77 76 75
70 67 71 74 82 86 70 58 48 41 27 21 40 74 80 84 85 88 97 92 97 86 84 89 91 79 78 67 94 88 89 100 58 88 98 100 96 86 90 70 66 62 63 69 70 71 74 72 74 74 77 77 76 77
69 64 60 67 66 76 77 62 21 14 19 83 80 88 89 94 92 97 96 94 80 82 88 89 94 90 86 92 94 88 90 78 86 94 100 100 98 93 72 66 70 71 70 80 80 78 80 82 83 85 83 83 83 84
60 65 64 59 52 56 54 51 18 17 61 91 83 100 95 76 81 90 82 83 69 70 84 91 93 81 93 87 79 80 76 94 94 100 99 90 93 83 82 75 80 83 84 87 84 84 87 87 92 92 89 88 87 86
51 46 51 57 59 49 25 19 29 51 62 82 85 88 65 85 87 85 87 88 61 81 79 89 89 86 98 93 87 95 87 100 100 99 90 90 93 92 87 83 83 88 95 87 87 87 85 89 93 94 91 87 87 89
82 82 40 41 41 36 24 36 48 74 91 89 92 56 70 83 86 78 71 70 57 80 96 94 94 100 90 90 98 94 100 99 95 87 74 76 94 90 88 95 91 94 95 92 91 93 91 89 93 95 99 92 84 84
74 88 65 23 19 27 34 44 59 84 94 89 86 76 59 60 73 70 61 62 74 79 83 96 86 90 98 99 99 98 94 82 70 73 69 70 75 77 83 97 97 96 95 97 93 93 95 96 97 94 88 85 86 84
65 53 45 19 18 28 42 50 59 97 99 88 66 58 63 67 62 61 61 58 59 58 92 93 92 100 98 95 94 85 85 86 92 77 71 67 68 80 93 92 92 91 90 90 94 98 95 97 100 100 98 96 96 90
34 29 20 17 17 40 76 83 68 88 99 90 78 92 85 74 66 69 68 58 69 95 94 98 98 97 97 91 93 92 90 95 91 85 71 68 72 85 85 87 95 98 99 96 92 80 89 97 88 90 90 94 98 92
19 21 20 21 34 48 88 98 98 98 94 96 90 92 94 80 95 92 86 74 91 100 98 93 93 87 87 95 85 95 91 99 96 97 94 92 94 92 85 83 86 93 91 92 94 93 87 90 94 88 92 99 100 100
19 17 19 21 41 50 78 76 97 84 96 96 96 94 99 99 100 100 99 97 100 96 97 96 93 96 91 92 92 94 95 95 92 88 87 92 94 92 92 93 89 89 93 92 90 96 96 92 83 96 95 94 97 97
17 20 27 35 62 70 83 74 88 93 89 94 95 91 98 99 99 86 99 96 94 96 95 92 92 86 82 81 81 78 81 89 96 95 94 95 98 95 88 90 89 91 92 91 90 95 100 86 93 99 100 99 99 99
23 48 86 88 77 86 85 92 94 94 93 94 94 96 97 100 94 95 100 98 84 81 86 91 91 90 85 84 86 82 83 90 96 95 89 94 100 96 96 96 92 89 90 92 95 92 94 97 96 100 100 100 100 100
67 86 82 87 90 84 88 91 90 91 99 98 95 99 99 99 98 99 100 95 86 88 90 95 94 95 96 94 89 88 81 86 99 100 74 78 87 97 94 94 92 89 90 100 100 100 100 99 100 100 100 100 100 100
96 100 97 99 97 94 99 97 100 100 99 98 100 98 98 98 96 100 100 99 93 92 99 100 100 100 94 92 97 98 92 89 97 100 78 75 84 100 100 100 100 96 90 99 100 100 100 100 100 100 100 100 100 100
92 96 95 69 82 83 95 93 93 96 100 100 100 99 95 98 98 92 85 78 92 93 99 97 97 100 100 99 92 89 86 92 99 99 97 95 98 93 85 94 100 92 97 99 100 100 100 100 100 100 100 100 100 100
96 92 98 95 98 95 98 100 100 100 100 95 94 100 100 100 91 92 78 68 78 84 93 94 97 98 98 98 99 99 95 98 98 95 92 92 96 96 97 97 97 100 100 98 100 100 100 100 98 100 100 100 100 98
96 94 91 92 95 99 100 100 100 99 94 99 100 99 98 86 74 68 61 64 76 93 98 98 92 95 94 96 96 96 97 98 100 100 94 90 91 93 99 98 98 97 97 97 96 100 100 100 100 100 100 100 97 98
97 96 93 95 97 100 100 100 99 96 96 98 100 97 93 80 58 54 54 61 82 92 95 96 97 99 100 100 100 94 90 96 98 99 99 96 97 97 96 95 96 95 98 99 98 96 98 99 94 98 99 97 98 99
88 95 93 97 100 100 93 90 90 96 99 98 98 100 98 80 54 41 43 51 63 69 89 98 96 97 99 99 100 100 96 86 99 99 100 99 99 98 94 98 98 98 98 98 98 98 98 98 98 98 98 98 96 100
94 100 94 84 90 89 85 97 97 98 98 97 97 97 88 98 98 46 48 45 55 64 88 98 99 96 97 97 96 96 100 97 97 97 97 98 98 98 98 97 97 97 98 98 97 98 98 98 98 98 99 98 98 99
95 94 94 93 89 88 94 92 86 84 89 92 90 94 97 95 82 43 40 45 52 66 94 96 96 96 95 97 98 99 100 100 100 100 100 100 99 98 97 96 97 97 97 97 97 98 97 98 98 98 98 98 98 98
Wind_Speed
12 10 6 5 3 3 4 6 7 7 9 11 11 11 12 9 7 8 8 7 5 2 2 5 5 3 4 3 2 3 3 3 3 2 2 3 2 2 5 4 4 4 2 3 4 1 2 9 4 2 1 3 5 5
11 7 5 2 4 4 5 6 8 9 9 10 11 11 8 8 7 6 3 3 5 3 3 7 13 11 8 6 3 3 4 3 2 2 1 2 1 3 2 2 5 2 2 2 3 2 2 4 5 1 1 3 5 4
9 7 6 4 4 5 7 8 8 9 10 11 12 9 10 9 3 4 3 7 3 3 2 2 3 7 11 10 7 3 1 3 3 2 2 2 6 4 4 3 3 2 3 2 3 4 5 5 7 8 6 4 5 8
10 8 6 5 7 7 6 7 9 10 11 11 11 6 6 4 2 1 5 6 2 5 0 3 5 5 14 11 12 15 7 3 4 4 3 4 3 5 3 3 4 3 5 5 2 4 0 5 7 6 7 10 8 11
9 8 8 8 6 6 8 9 11 11 11 11 7 5 5 3 10 10 12 19 11 4 2 4 11 15 16 20 23 23 16 4 3 3 4 3 2 4 2 3 4 4 2 3 2 4 2 2 3 7 4 5 8 7
10 9 7 7 8 9 10 10 11 11 10 9 4 4 3 8 6 4 4 2 26 8 2 3 4 11 16 13 23 21 13 6 3 3 3 3 3 1 3 3 3 4 3 0 2 3 2 5 1 6 3 7 11 7
9 8 9 11 12 11 11 11 10 10 8 1 10 12 12 7 8 10 4 16 13 6 2 4 3 5 19 2 5 6 17 4 3 3 3 2 3 4 3 3 5 7 3 3 5 3 2 4 3 10 7 8 8 7
12 12 13 12 13 12 11 10 9 7 1 20 20 19 16 15 13 14 18 23 7 7 7 3 4 3 14 4 2 5 2 3 5 3 2 2 3 3 4 4 4 6 6 6 6 5 4 7 8 9 8 9 7 5
13 14 14 16 15 11 9 8 5 3 18 19 13 11 6 9 5 6 9 17 26 12 3 4 5 4 12 4 3 2 2 3 2 3 2 3 3 5 4 4 5 6 4 6 7 8 6 3 5 9 7 8 3 5
14 16 16 15 13 11 11 5 4 8 14 10 2 4 3 6 9 4 8 5 7 9 4 4 6 4 6 5 3 2 3 2 2 2 2 3 2 2 3 4 2 5 8 6 4 7 6 6 6 6 6 11 9 9
12 14 15 16 12 12 10 3 9 9 6 3 4 3 3 9 6 6 4 5 5 4 4 4 6 5 5 3 3 4 2 2 3 2 2 2 2 3 4 3 7 8 9 9 8 10 9 10 7 9 10 11 11 12
10 14 17 17 12 11 19 12 9 10 9 9 15 10 9 9 4 7 4 4 4 4 4 6 6 4 3 3 3 4 3 3 3 2 3 2 1 3 5 5 8 10 11 10 10 11 11 12 12 12 13 12 12 12
13 14 16 20 16 12 14 16 17 15 11 10 10 6 4 4 11 7 7 4 3 4 4 7 7 3 4 5 2 3 5 3 0 3 2 1 1 4 4 8 10 13 12 12 13 13 13 14 14 13 14 14 14 14
15 16 18 21 23 19 13 13 9 9 11 5 5 8 4 5 5 3 5 5 4 4 6 6 3 2 2 4 3 5 2 3 4 3 1 1 2 4 6 11 10 11 13 11 13 13 13 14 14 15 15 16 16 16
23 21 18 22 24 25 25 21 12 15 9 5 5 6 4 3 3 2 3 3 3 5 5 3 2 2 3 4 3 4 6 4 3 2 2 3 3 3 5 11 11 12 14 15 15 14 14 15 15 15 15 16 17 17
25 29 29 26 22 20 22 27 31 13 8 5 7 3 4 2 5 4 3 2 6 2 3 1 2 4 4 3 5 4 3 3 3 2 3 4 4 4 7 12 15 16 15 16 16 14 14 14 14 17 19 16 16 14
16 9 24 32 31 29 26 18 10 10 5 5 3 5 5 3 4 4 4 5 12 1 2 3 6 1 2 4 4 3 1 3 4 5 4 7 4 9 14 15 15 15 15 16 15 15 16 18 17 17 17 17 15 15
23 12 9 8 16 25 37 17 9 6 7 3 4 6 5 5 6 6 7 13 6 3 2 2 1 6 3 3 3 2 3 4 5 6 9 14 13 14 14 15 15 16 17 15 16 18 18 17 16 14 16 17 19 19
22 21 22 21 16 8 8 11 11 5 3 1 5 9 6 8 15 16 15 14 10 7 3 3 5 3 2 2 5 6 5 5 6 7 14 13 13 15 14 15 16 15 16 19 18 18 19 18 16 17 17 17 18 19
25 25 18 12 6 6 6 5 5 5 3 0 4 3 2 4 12 14 16 16 8 3 5 4 3 3 3 4 7 7 10 12 10 7 7 13 16 16 14 16 15 17 18 17 16 16 18 12 13 14 17 19 16 17
34 30 29 28 14 15 9 3 4 2 1 3 3 3 1 2 3 5 6 12 4 3 3 3 4 9 14 11 11 13 13 13 11 11 9 8 15 12 15 16 18 18 16 16 15 15 16 15 17 20 22 23 19 21
18 14 14 18 9 7 9 11 3 2 3 1 3 3 3 3 3 3 10 3 3 3 3 5 10 13 13 13 14 13 13 15 16 16 17 16 13 15 16 16 17 17 16 16 17 16 16 17 24 21 20 22 19 18
8 8 8 11 7 7 3 6 5 5 4 4 2 4 4 3 2 11 3 2 2 8 11 13 15 15 15 15 15 14 14 15 15 16 17 17 18 17 16 17 16 16 17 18 18 19 17 22 23 22 20 21 19 19
9 9 7 5 6 3 2 5 3 3 4 4 4 4 5 3 5 3 2 2 5 13 15 17 16 16 15 14 13 15 17 17 18 19 18 18 16 17 17 18 19 19 17 19 18 20 21 20 23 21 20 19 20 19
7 10 7 7 4 6 6 5 6 5 4 3 4 4 4 3 3 3 2 3 6 10 16 17 15 13 11 15 16 18 19 16 18 19 27 20 19 19 20 20 21 20 18 18 18 21 20 21 20 19 20 21 22 24
8 5 5 4 4 5 3 4 4 3 2 5 3 3 2 2 4 3 2 2 3 12 17 17 16 17 17 14 18 20 23 23 22 20 27 18 23 20 19 17 19 22 17 18 27 22 21 24 21 22 23 22 21 20
7 5 3 5 2 1 3 2 1 3 4 5 3 4 3 5 3 3 3 6 9 19 23 23 19 17 19 24 26 25 25 24 23 25 28 27 25 21 19 21 20 24 27 27 25 25 26 24 23 24 26 23 21 23
2 4 4 5 4 2 3 3 4 4 3 3 2 6 2 1 2 2 5 18 22 26 27 25 23 21 24 26 25 26 26 25 25 25 23 22 16 17 16 16 22 23 25 27 24 23 22 23 25 29 23 23 28 25
3 3 1 6 4 4 3 2 2 1 2 1 1 2 3 2 5 8 18 21 22 24 24 25 30 28 30 28 28 26 25 25 21 16 15 14 21 20 18 26 28 28 29 30 25 20 20 22 22 20 22 24 22 21
4 7 3 3 4 3 2 1 2 4 2 3 4 4 4 6 10 13 16 17 20 24 26 27 27 26 25 24 28 31 27 23 18 19 17 20 22 33 33 33 33 32 32 30 27 26 22 22 21 22 21 21 20 20
5 3 3 3 1 2 3 8 7 4 4 3 4 3 3 7 9 7 10 15 19 24 25 24 30 27 24 26 25 25 29 31 28 31 29 30 34 36 37 37 34 31 27 24 24 24 24 24 23 23 23 23 22 19
3 3 2 3 3 3 3 4 2 1 2 1 2 4 4 3 3 4 12 17 23 26 26 29 28 35 31 28 26 25 24 31 33 33 34 33 33 35 34 30 25 24 24 24 24 24 23 22 23 23 23 24 24 23
2 2 2 2 4 5 3 3 3 4 2 2 3 1 2 2 4 5 12 14 21 26 30 34 35 32 28 26 25 29 33 34 32 28 26 28 27 28 27 27 25 24 23 23 22 22 22 22 23 24 24 24 24 24
Wind_Direction
137 137 125 111 57 1 1 336 335 340 330 327 322 316 317 319 320 307 295 298 261 276 38 38 31 13 339 6 325 6 297 227 190 239 249 246 255 98 82 33 355 44 349 35 314 161 177 348 305 319 334 342 47 9
131 121 106 67 51 11 351 346 338 329 328 321 319 323 324 325 316 318 300 1 304 239 54 97 89 64 58 12 308 289 290 281 352 304 329 18 71 50 169 100 7 76 43 52 28 78 109 24 72 143 354 6 19 2
119 100 86 64 34 13 355 342 334 330 327 322 320 320 322 320 322 342 311 326 315 242 135 145 21 28 6 343 278 283 316 9 74 269 10 62 74 350 37 43 127 76 7 82 200 82 39 59 60 32 17 14 6 1
101 90 71 47 24 6 346 337 331 329 324 320 319 314 325 329 62 170 72 8 277 303 192 77 59 43 7 13 16 225 260 63 68 32 57 44 64 13 46 105 67 353 327 355 75 67 342 73 44 17 358 13 12 352
93 79 50 31 9 351 342 340 332 326 321 320 317 313 311 211 127 121 88 56 39 336 5 133 118 38 32 39 40 42 50 47 32 57 41 46 47 60 57 79 42 356 354 359 30 5 298 49 7 10 353 1 349 340
78 54 40 22 10 356 342 334 326 323 324 327 322 321 297 163 144 185 193 315 3 350 244 131 104 25 8 55 52 40 35 46 53 70 73 62 319 24 78 72 360 4 13 69 311 314 297 280 160 12 332 338 325 348
66 51 35 18 6 351 337 332 329 327 332 23 101 97 93 122 122 68 64 321 331 346 346 139 91 43 355 7 34 69 50 46 62 76 56 54 13 46 46 64 3 357 360 11 353 331 327 18 280 323 320 325 329 321
58 40 26 12 357 350 347 339 331 329 293 128 119 105 96 91 81 44 24 19 47 74 39 29 359 56 10 329 56 15 66 49 33 84 53 57 39 56 64 16 4 354 343 28 349 339 234 288 304 310 311 310 316 311
52 37 23 14 5 359 351 337 334 325 153 131 120 117 69 41 46 351 17 34 55 50 76 45 356 352 345 346 7 46 42 69 61 60 32 66 49 45 348 349 7 356 349 321 323 321 329 302 300 329 326 334 318 303
47 34 21 11 9 4 354 345 139 136 128 124 130 59 61 1 342 11 20 25 29 29 42 38 5 352 334 328 27 32 38 59 66 45 79 78 82 127 346 347 355 322 321 346 353 343 339 338 332 320 317 321 315 321
47 33 23 16 24 19 13 103 140 136 120 78 66 67 16 20 52 39 45 34 6 35 24 348 2 335 353 338 349 8 51 18 69 14 65 74 62 346 333 328 328 342 348 346 342 329 329 326 315 322 327 335 338 339
58 41 32 29 47 51 51 80 144 113 88 88 110 90 37 28 26 63 20 19 38 28 10 341 336 333 310 320 344 357 63 42 66 328 59 66 14 316 347 317 339 351 345 338 347 336 331 327 329 325 317 323 325 328
60 50 45 43 50 68 71 77 85 100 97 62 51 50 30 353 39 45 4 344 356 2 352 336 330 336 330 0 28 25 54 56 130 43 66 84 323 342 311 336 342 341 343 345 344 333 331 325 328 326 322 316 316 318
65 59 52 51 53 60 68 70 79 77 62 55 54 37 55 16 32 7 341 334 320 306 328 323 312 349 338 22 1 66 342 31 45 49 54 344 314 314 339 338 337 332 337 336 323 324 324 323 318 315 313 313 313 310
62 59 60 55 55 57 61 64 81 82 62 63 45 48 48 30 28 310 318 291 345 329 326 327 320 48 345 49 25 29 28 43 37 350 309 317 308 328 328 337 335 330 321 318 320 319 314 310 307 306 312 309 304 301
63 59 54 55 57 57 66 71 60 61 63 64 42 47 13 14 9 4 335 327 355 302 267 241 352 50 20 55 42 11 58 29 325 315 298 308 315 309 325 323 311 302 305 314 314 316 316 319 317 312 310 308 304 299
62 75 58 59 60 62 68 64 54 51 65 52 44 35 50 20 4 353 356 345 318 12 17 42 48 279 314 42 31 24 344 275 296 303 315 325 321 319 323 318 317 318 319 317 317 318 313 310 307 307 298 306 307 305
66 70 39 69 61 57 50 40 68 64 63 33 50 36 47 31 14 15 6 19 21 14 30 74 94 33 46 36 350 329 321 322 324 335 325 319 318 318 317 313 312 313 307 305 313 311 308 308 305 298 308 312 311 309
75 73 67 73 76 64 60 34 47 79 67 1 50 49 49 33 26 23 14 29 28 52 88 35 55 30 13 6 332 327 329 330 326 321 312 322 328 322 323 327 324 321 321 315 312 302 300 301 293 295 297 303 293 294
70 67 74 75 63 60 65 32 50 74 60 13 14 356 27 29 18 20 21 21 15 44 36 44 27 351 344 318 332 321 324 329 328 318 319 325 321 325 326 323 316 317 314 315 316 319 312 315 319 313 309 301 307 304
73 67 67 69 53 61 80 16 46 64 51 75 328 356 7 356 7 4 10 6 33 42 31 13 348 340 335 339 343 337 331 337 323 310 302 301 316 327 323 324 323 321 323 321 317 316 326 321 324 319 307 300 297 295
66 68 62 59 60 65 71 34 83 20 63 122 29 15 29 18 341 352 316 33 44 29 4 337 338 329 326 335 334 330 328 331 325 322 324 323 325 323 320 322 328 323 321 317 316 319 319 325 325 322 320 312 315 317
56 41 47 33 64 47 321 12 60 3 63 335 7 31 7 -0 303 333 49 41 36 357 356 348 337 334 328 327 328 329 332 334 325 321 319 318 311 310 316 319 319 317 316 316 316 312 310 320 320 317 320 319 318 316
48 43 36 52 42 27 9 23 26 40 37 22 29 16 347 310 319 43 26 30 358 350 351 346 342 334 332 332 326 325 328 327 320 316 319 318 308 304 310 306 308 311 310 311 309 315 311 312 318 316 315 314 312 308
61 355 42 9 355 43 35 16 2 31 33 334 42 358 335 351 42 19 349 319 343 344 342 337 332 326 311 308 310 314 327 322 317 309 314 322 301 300 303 303 307 309 312 306 304 311 305 312 311 307 309 308 305 302
63 324 61 356 352 62 347 43 25 353 13 18 351 278 10 27 39 333 315 305 315 335 334 329 320 317 312 304 302 306 312 323 316 300 307 315 309 300 290 294 302 304 315 313 316 302 304 311 306 306 307 307 309 311
47 346 342 41 327 56 55 47 4 58 40 13 327 337 31 30 319 278 311 322 318 328 330 331 324 304 293 303 313 317 319 315 308 304 312 312 313 308 294 281 284 295 310 313 308 306 307 305 306 305 305 302 300 304
108 25 55 320 39 18 90 38 38 14 333 334 322 17 79 350 277 291 295 322 328 330 334 339 339 332 326 326 325 325 327 329 324 322 324 322 322 319 316 295 300 299 300 302 309 306 302 307 307 305 303 304 309 314
40 336 22 19 26 45 50 67 347 342 349 315 338 291 280 262 264 281 309 322 328 334 329 328 337 341 337 338 339 337 336 333 315 308 310 315 323 324 320 317 321 323 321 321 323 307 302 308 306 309 307 304 309 313
339 357 68 37 64 28 275 275 271 314 270 261 263 291 271 266 284 305 314 328 329 330 333 334 334 329 322 325 324 329 337 336 322 295 286 304 309 321 328 327 327 324 322 322 319 318 316 312 310 307 309 310 314 315
325 353 56 44 94 256 280 306 295 275 261 254 236 216 263 303 307 316 328 340 337 339 340 333 335 338 332 329 326 322 320 343 334 328 321 314 318 322 325 326 324 324 323 318 317 314 315 315 314 314 315 316 317 310
18 52 81 29 311 319 346 351 276 287 282 322 277 221 298 335 296 295 342 344 349 348 345 344 336 335 350 346 345 343 334 333 334 337 334 332 326 328 327 332 335 331 328 326 324 322 320 317 318 317 316 316 318 317
38 26 14 34 355 357 335 14 359 335 333 306 288 237 238 201 260 305 333 351 352 349 347 350 352 353 355 357 357 358 359 356 352 347 343 341 340 340 339 338 341 339 337 337 336 332 327 324 321 323 323 321 320 320